Regional Weather Roundup
Issued by NWS

Home | Current Version | Previous Version | Graphics & Text | Print | Product List | Glossary On
Versions: 1 2 3 4 5 6 7 8 9 10 11 12 13 14 15 16 17 18 19 20 21 22 23 24 25 26 27 28 29 30 31 32 33 34 35 36 37 38 39 40 41 42 43 44 45 46 47 48 49 50
000
ASUS45 KCYS 302110
RWRWY

WYOMING REGIONAL WEATHER ROUNDUP
NATIONAL WEATHER SERVICE CHEYENNE WY
300 PM MDT MON MAR 30 2015

NOTE:  "FAIR" INDICATES FEW OR NO CLOUDS BELOW 12,000 FEET
WITH NO SIGNIFICANT WEATHER AND/OR OBSTRUCTIONS TO VISIBILITY.

WYZ001-302200-
YELLOWSTONE NATIONAL PARK

CITY           SKY/WX    TMP DP  RH WIND       PRES   REMARKS
LK YELLOWSTONE   N/A     50  16  25 VRB6G18   30.25F
W YELLOWSTONE  NOT AVBL

$$
WYZ002>013-054>058-071-098>099-302200-
NORTHERN WYOMING

CITY           SKY/WX    TMP DP  RH WIND       PRES   REMARKS
JACKSON        SUNNY     57  16  19 SW10G17   30.22F
CODY           FAIR      64  19  17 SW14G22   30.09F
GREYBULL       FAIR      67  19  16 CALM      30.06F
WORLAND        NOT AVBL
SHERIDAN       FAIR      66  27  23 N7        30.06F
BUFFALO        FAIR      63  28  26 VRB5      30.10F
GILLETTE       FAIR      64  27  24 W10G18    30.09F
HULETT         FAIR      63  28  27 NW13G18   30.09F
NEWCASTLE      FAIR      64  23  20 NW13G26   30.09F

$$
WYZ014>020-022>026-101>103-302200-
CENTRAL WYOMING

CITY           SKY/WX    TMP DP  RH WIND       PRES   REMARKS
BIG PINEY      FAIR      63   8  11 NW13G28   30.24F
PINEDALE       FAIR      57  14  18 NW21G26   30.26S
DUBOIS         FAIR      55  10  16 W21       30.20S
LANDER         FAIR      66  19  16 NW6       30.10F
RIVERTON       FAIR      66  18  15 W10G17    30.11F
CASPER         FAIR      66  19  16 MISG      30.11F
DOUGLAS        FAIR      66  19  16 W14       30.11F

$$
WYZ021-027>030-104>119-302200-
SOUTHERN WYOMING

CITY           SKY/WX    TMP DP  RH WIND       PRES   REMARKS
EVANSTON       FAIR      64   7  10 W15       30.26F
KEMMERER       FAIR      61  10  13 NW12G22   30.27F
FORT BRIDGER   FAIR      65  10  11 NW14G22   30.28F
ROCK SPRINGS   FAIR      62  12  14 W16G26    30.23F
DIXON          FAIR      65  17  15 W15G28    30.22F
RAWLINS        FAIR      65  12  12 W22G31    30.18F
SARATOGA       FAIR      63  18  17 W13G21    30.20F
LARAMIE        FAIR      61  16  17 W21G31    30.18F
CHEYENNE       FAIR      65  18  16 NW16G24   30.12F
TORRINGTON     FAIR      70  21  15 N8        30.08F
PINE BLUFFS    FAIR      66  19  16 W8G17     30.11F

$$


USA.gov is the U.S. government's official web portal to all federal, state and local government web resources and services.